When you browse on this site, cookies collect data to enhance your experience and personalize the content and advertising you see.
Visit our Privacy Policy to learn more. By continuing to use the site, you agree to this use of cookies and data.
  • In Hungary
  • List of Countries
  • For 7 days
  • Water Temperature
  • Weather Map
  • News
  • Weather Widgets
  • user-avatar
    Login

    Hourly Weather Sungai Petani

    Today, 26 August, Monday

    Time Temperature Precipitation Wind Pressure Humidity
    00:00 +26°C° 0 mm 1 mps 756 mmHg 89%
    01:00 +24°C° 0 mm 0 mps 755 mmHg 88%
    02:00 +24°C° 0 mm 0 mps 755 mmHg 88%
    03:00 +24°C° 0 mm 0 mps 755 mmHg 87%
    04:00 +26°C° 0 mm 1 mps 754 mmHg 87%
    05:00 +26°C° 0 mm 1 mps 755 mmHg 87%
    06:00 +26°C° 0 mm 1 mps 755 mmHg 86%
    07:00 +26°C° 0 mm 1 mps 756 mmHg 88%
    08:00 +27°C° 0 mm 1 mps 756 mmHg 84%
    09:00 +29°C° 0 mm 1 mps 756 mmHg 79%
    10:00 +30°C° 0 mm 1 mps 756 mmHg 75%
    11:00 +30°C° 0 mm 1 mps 756 mmHg 74%
    12:00 +30°C° 0 mm 1 mps 755 mmHg 73%
    13:00 +31°C° 0 mm 1 mps 755 mmHg 73%
    14:00 +31°C° 0.1 mm 1 mps 754 mmHg 71%
    15:00 +31°C° 0.1 mm 1 mps 754 mmHg 70%
    16:00 +32°C° 0.1 mm 1 mps 753 mmHg 68%
    17:00 +30°C° 0 mm 1 mps 754 mmHg 74%
    18:00 +29°C° 0 mm 1 mps 754 mmHg 79%
    19:00 +28°C° 0 mm 1 mps 754 mmHg 85%
    20:00 +27°C° 0 mm 1 mps 755 mmHg 86%
    21:00 +27°C° 0 mm 1 mps 755 mmHg 87%
    22:00 +27°C° 0 mm 1 mps 756 mmHg 88%
    23:00 +26°C° 0.1 mm 1 mps 756 mmHg 89%

    Tomorrow, 27 August, Tuesday

    Time Temperature Precipitation Wind Pressure Humidity
    00:00 +26°C° 0.1 mm 1 mps 756 mmHg 90%
    01:00 +26°C° 0.1 mm 1 mps 755 mmHg 91%
    02:00 +26°C° 0.3 mm 1 mps 755 mmHg 91%
    03:00 +26°C° 0.3 mm 1 mps 755 mmHg 92%
    04:00 +25°C° 0.3 mm 1 mps 754 mmHg 92%
    05:00 +26°C° 0.5 mm 1 mps 755 mmHg 92%
    06:00 +26°C° 0.5 mm 1 mps 755 mmHg 92%
    07:00 +26°C° 0.5 mm 1 mps 755 mmHg 92%
    08:00 +28°C° 0.9 mm 1 mps 756 mmHg 85%
    09:00 +29°C° 0.9 mm 1 mps 756 mmHg 79%
    10:00 +31°C° 0.9 mm 1 mps 756 mmHg 72%
    11:00 +32°C° 0 mm 1 mps 756 mmHg 68%
    12:00 +32°C° 0 mm 2 mps 755 mmHg 64%
    13:00 +34°C° 0 mm 2 mps 755 mmHg 61%
    14:00 +34°C° 0 mm 2 mps 754 mmHg 61%
    15:00 +34°C° 0 mm 2 mps 753 mmHg 61%
    16:00 +32°C° 0 mm 2 mps 752 mmHg 61%
    17:00 +31°C° 0 mm 2 mps 753 mmHg 68%
    18:00 +29°C° 0 mm 1 mps 753 mmHg 74%
    19:00 +28°C° 0 mm 1 mps 754 mmHg 81%
    20:00 +28°C° 0 mm 1 mps 755 mmHg 82%
    21:00 +27°C° 0 mm 1 mps 755 mmHg 83%
    22:00 +27°C° 0 mm 1 mps 756 mmHg 84%
    23:00 +27°C° 0 mm 1 mps 756 mmHg 84%

    Day after tomorrow, 28 August, Wednesday

    Time Temperature Precipitation Wind Pressure Humidity
    00:00 +27°C° 0 mm 1 mps 756 mmHg 84%
    01:00 +27°C° 0 mm 1 mps 756 mmHg 84%
    02:00 +27°C° 0.7 mm 1 mps 755 mmHg 87%
    03:00 +26°C° 0.7 mm 1 mps 755 mmHg 90%
    04:00 +24°C° 0.7 mm 0 mps 754 mmHg 93%
    05:00 +24°C° 0.2 mm 0 mps 755 mmHg 92%
    06:00 +26°C° 0.2 mm 1 mps 755 mmHg 92%
    07:00 +27°C° 0.2 mm 1 mps 755 mmHg 91%
    08:00 +28°C° 0 mm 1 mps 755 mmHg 85%
    09:00 +30°C° 0 mm 1 mps 756 mmHg 78%
    10:00 +31°C° 0 mm 1 mps 756 mmHg 71%
    11:00 +32°C° 0 mm 1 mps 756 mmHg 66%
    12:00 +34°C° 0 mm 2 mps 755 mmHg 61%
    13:00 +35°C° 0 mm 2 mps 755 mmHg 55%
    14:00 +34°C° 0 mm 2 mps 754 mmHg 57%
    15:00 +34°C° 0 mm 2 mps 754 mmHg 59%
    16:00 +34°C° 0 mm 2 mps 753 mmHg 61%
    17:00 +31°C° 0 mm 2 mps 753 mmHg 68%
    18:00 +29°C° 0 mm 1 mps 754 mmHg 75%
    19:00 +28°C° 0 mm 1 mps 754 mmHg 82%
    20:00 +28°C° 0 mm 1 mps 755 mmHg 83%
    21:00 +28°C° 0 mm 1 mps 755 mmHg 83%
    22:00 +28°C° 0 mm 1 mps 756 mmHg 84%
    23:00 +27°C° 0.1 mm 1 mps 756 mmHg 85%

    29 August, Thursday

    Time Temperature Precipitation Wind Pressure Humidity
    00:00 +25°C° 0.1 mm 0 mps 755 mmHg 86%
    01:00 +25°C° 0.1 mm 0 mps 755 mmHg 86%
    02:00 +27°C° 0 mm 1 mps 755 mmHg 88%
    03:00 +26°C° 0 mm 1 mps 754 mmHg 89%
    04:00 +26°C° 0 mm 1 mps 754 mmHg 90%
    05:00 +26°C° 0 mm 1 mps 754 mmHg 89%
    06:00 +26°C° 0 mm 1 mps 754 mmHg 89%
    07:00 +26°C° 0 mm 1 mps 754 mmHg 89%
    08:00 +28°C° 0 mm 1 mps 755 mmHg 82%
    09:00 +29°C° 0 mm 1 mps 755 mmHg 76%
    10:00 +31°C° 0 mm 1 mps 756 mmHg 69%
    11:00 +32°C° 0 mm 2 mps 755 mmHg 65%
    12:00 +34°C° 0 mm 2 mps 754 mmHg 61%
    13:00 +34°C° 0 mm 2 mps 754 mmHg 57%
    14:00 +34°C° 0 mm 3 mps 753 mmHg 60%
    15:00 +34°C° 0 mm 3 mps 753 mmHg 63%
    16:00 +33°C° 0 mm 3 mps 752 mmHg 65%
    17:00 +31°C° 0.7 mm 3 mps 752 mmHg 74%
    18:00 +29°C° 0.7 mm 2 mps 753 mmHg 82%
    19:00 +27°C° 0.7 mm 2 mps 753 mmHg 90%
    20:00 +27°C° 0.4 mm 1 mps 754 mmHg 90%
    21:00 +27°C° 0.4 mm 1 mps 755 mmHg 91%
    22:00 +27°C° 0.4 mm 1 mps 755 mmHg 91%
    23:00 +27°C° 0.7 mm 1 mps 755 mmHg 91%

    30 August, Friday

    Time Temperature Precipitation Wind Pressure Humidity
    00:00 +27°C° 0.7 mm 1 mps 754 mmHg 91%
    01:00 +26°C° 0.7 mm 1 mps 754 mmHg 91%
    02:00 +26°C° 0.4 mm 1 mps 754 mmHg 90%
    03:00 +26°C° 0.4 mm 1 mps 753 mmHg 90%
    04:00 +26°C° 0.4 mm 2 mps 753 mmHg 90%
    05:00 +26°C° 0 mm 1 mps 753 mmHg 90%
    06:00 +26°C° 0 mm 1 mps 753 mmHg 90%
    07:00 +26°C° 0 mm 1 mps 753 mmHg 91%
    08:00 +28°C° 0 mm 2 mps 754 mmHg 83%
    09:00 +30°C° 0 mm 3 mps 754 mmHg 75%
    10:00 +31°C° 0 mm 3 mps 754 mmHg 67%
    11:00 +33°C° 0 mm 3 mps 753 mmHg 64%
    12:00 +34°C° 0 mm 4 mps 753 mmHg 60%
    13:00 +35°C° 0 mm 4 mps 752 mmHg 56%
    14:00 +35°C° 0.1 mm 4 mps 752 mmHg 60%
    15:00 +34°C° 0.1 mm 4 mps 751 mmHg 64%
    16:00 +33°C° 0.1 mm 4 mps 751 mmHg 68%
    17:00 +31°C° 0.5 mm 3 mps 751 mmHg 75%
    18:00 +29°C° 0.5 mm 2 mps 752 mmHg 81%
    19:00 +28°C° 0.5 mm 2 mps 752 mmHg 88%
    20:00 +27°C° 0 mm 1 mps 753 mmHg 89%
    21:00 +27°C° 0 mm 1 mps 753 mmHg 89%
    22:00 +27°C° 0 mm 1 mps 754 mmHg 90%
    23:00 +27°C° 0.4 mm 1 mps 753 mmHg 91%

    31 August, Saturday

    Time Temperature Precipitation Wind Pressure Humidity
    00:00 +26°C° 0.4 mm 1 mps 753 mmHg 92%
    01:00 +26°C° 0.4 mm 1 mps 753 mmHg 93%
    02:00 +26°C° 0 mm 1 mps 753 mmHg 92%
    03:00 +26°C° 0 mm 1 mps 752 mmHg 92%
    04:00 +26°C° 0 mm 1 mps 752 mmHg 92%
    05:00 +26°C° 0 mm 1 mps 752 mmHg 91%
    06:00 +26°C° 0 mm 1 mps 753 mmHg 90%
    07:00 +26°C° 0 mm 1 mps 753 mmHg 90%
    08:00 +28°C° 0 mm 2 mps 753 mmHg 82%
    09:00 +30°C° 0 mm 2 mps 754 mmHg 74%
    10:00 +33°C° 0 mm 3 mps 754 mmHg 66%
    11:00 +33°C° 0 mm 3 mps 753 mmHg 63%
    12:00 +34°C° 0 mm 3 mps 753 mmHg 60%
    13:00 +35°C° 0 mm 4 mps 752 mmHg 57%
    14:00 +35°C° 0 mm 4 mps 752 mmHg 59%
    15:00 +34°C° 0 mm 4 mps 751 mmHg 60%
    16:00 +34°C° 0 mm 4 mps 751 mmHg 61%
    17:00 +33°C° 0.1 mm 3 mps 751 mmHg 68%
    18:00 +30°C° 0.1 mm 2 mps 752 mmHg 75%
    19:00 +28°C° 0.1 mm 1 mps 752 mmHg 82%
    20:00 +28°C° 0.2 mm 1 mps 753 mmHg 84%
    21:00 +28°C° 0.2 mm 1 mps 753 mmHg 86%
    22:00 +27°C° 0.2 mm 1 mps 754 mmHg 88%
    23:00 +27°C° 0.8 mm 1 mps 754 mmHg 89%
    Show more